FW8249 Weather Reports


time (UTC)temp
C
wind
direction
speed
KPH
gust
KPH
rain 1hr
cm
rain 24hr
cm
rain mn
cm
humidity
%
barometer
mb
20260508020053 9 0 0.0 0.0 0.00 0.00 0.00 89 1017.6
20260508014555 9 0 0.0 0.0 0.00 0.00 0.00 89 1017.5
20260508013053 9 0 0.0 0.0 0.00 0.00 0.00 89 1017.5
20260508011555 9 0 0.0 0.0 0.00 0.00 0.00 89 1017.4
20260508010056 9 0 0.0 0.0 0.00 0.00 0.00 88 1017.7
20260508004555 9 0 0.0 0.0 0.00 0.00 0.00 88 1017.7
20260508003107 9 0 0.0 0.0 0.00 0.00 0.00 88 1017.6
20260508001558 9 0 0.0 0.0 0.00 0.00 0.00 88 1017.7
20260507234558 9 0 0.0 0.0 0.00 0.00 0.00 88 1017.6
20260507233052 9 0 0.0 0.0 0.00 0.00 0.00 88 1017.5
20260507231557 10 0 0.0 0.0 0.00 0.00 0.00 89 1017.5
20260507230055 10 0 0.0 0.0 0.00 0.00 0.00 89 1017.6
20260507224611 10 0 0.0 0.0 0.00 0.00 0.00 88 1017.5
20260507223057 10 0 0.0 0.0 0.00 0.00 0.00 88 1017.5
20260507221553 10 0 0.0 0.0 0.00 0.00 0.00 88 1017.3
20260507220050 10 0 0.0 0.0 0.00 0.00 0.00 88 1017.5
20260507214554 10 0 0.0 0.0 0.00 0.00 0.00 87 1017.4
20260507213054 10 0 0.0 0.0 0.00 0.00 0.00 85 1017.3
20260507211620 11 0 0.0 0.0 0.00 0.00 0.00 82 1017.0
20260507210056 11 0 0.0 0.0 0.00 0.00 0.00 81 1016.9
20260507204601 11 0 0.0 0.0 0.00 0.00 0.00 79 1016.8
20260507203054 11 0 0.0 0.0 0.00 0.00 0.00 79 1016.6
20260507201607 11 0 0.0 0.0 0.00 0.00 0.00 78 1016.3
20260507194555 11 0 0.0 0.0 0.00 0.00 0.00 78 1016.1
20260507193055 12 0 0.0 0.0 0.00 0.00 0.00 77 1015.9
20260507191558 12 0 0.0 0.0 0.00 0.00 0.00 76 1015.7
20260507190100 12 0 0.0 0.0 0.00 0.00 0.00 74 1015.7
20260507184555 12 0 0.0 0.0 0.00 0.00 0.00 71 1015.7
20260507183100 13 0 0.0 0.0 0.00 0.00 0.00 68 1015.6
20260507181556 13 0 0.0 0.0 0.00 0.00 0.00 66 1015.5
20260507180058 13 0 0.0 0.0 0.00 0.00 0.00 66 1015.6
20260507174559 13 0 0.0 0.0 0.00 0.00 0.00 64 1015.5
20260507173101 13 0 0.0 0.0 0.00 0.00 0.00 64 1015.4
20260507171557 13 0 0.0 0.0 0.00 0.00 0.00 64 1015.5
20260507170056 13 0 0.0 0.0 0.00 0.00 0.00 62 1015.3
20260507164556 13 0 0.0 1.6 0.00 0.00 0.00 63 1015.2
20260507163053 13 0 0.0 0.0 0.00 0.00 0.00 63 1015.1
20260507161601 14 0 0.0 0.0 0.00 0.00 0.00 63 1015.1
20260507160053 14 0 0.0 0.0 0.00 0.00 0.00 62 1015.0
20260507154555 15 0 0.0 0.0 0.00 0.00 0.00 59 1015.1
20260507153100 14 0 0.0 0.0 0.00 0.00 0.00 60 1015.2
20260507151552 14 0 0.0 0.0 0.00 0.00 0.00 61 1015.2
20260507150056 14 0 0.0 0.0 0.00 0.00 0.00 59 1015.0
20260507144552 15 0 0.0 0.0 0.00 0.00 0.00 58 1015.0
20260507143055 14 0 0.0 0.0 0.00 0.00 0.00 58 1015.3
20260507141557 14 0 0.0 0.0 0.00 0.00 0.00 60 1015.3
20260507140109 14 0 0.0 3.2 0.00 0.00 0.00 62 1015.1
20260507134551 14 0 0.0 6.4 0.00 0.00 0.00 65 1015.2
20260507133051 14 0 0.0 0.0 0.00 0.00 0.00 67 1015.4
20260507131552 14 0 0.0 0.0 0.00 0.00 0.00 67 1015.3
20260507130056 13 0 0.0 0.0 0.00 0.00 0.00 69 1015.4
20260507124555 13 0 0.0 0.0 0.00 0.00 0.00 72 1015.7
20260507123057 13 0 0.0 4.8 0.00 0.00 0.00 69 1015.7
20260507121552 13 0 0.0 0.0 0.00 0.00 0.00 71 1015.9
20260507120056 13 0 0.0 0.0 0.00 0.00 0.00 71 1016.0
20260507114549 12 0 0.0 0.0 0.00 0.00 0.00 71 1016.0
20260507113053 13 0 0.0 4.8 0.00 0.00 0.00 71 1016.2
20260507111551 13 0 0.0 3.2 0.00 0.00 0.00 72 1016.2
20260507110058 12 0 0.0 8.0 0.00 0.00 0.00 76 1016.3
20260507104555 11 0 0.0 1.6 0.00 0.00 0.00 81 1016.6
20260507103052 11 0 0.0 8.0 0.00 0.00 0.00 78 1016.6
20260507101605 11 193 0.0 0.0 0.00 0.00 0.00 79 1016.6
20260507100051 11 0 0.0 0.0 0.00 0.00 0.00 82 1016.6
20260507094600 11 0 0.0 0.0 0.00 0.00 0.00 85 1016.5
20260507093053 10 0 0.0 0.0 0.00 0.00 0.00 89 1016.6
20260507091601 10 0 0.0 0.0 0.00 0.00 0.00 89 1016.6
20260507090110 10 0 0.0 0.0 0.00 0.00 0.00 89 1016.4
20260507084554 10 0 0.0 0.0 0.00 0.00 0.00 89 1016.7
20260507083059 10 0 0.0 0.0 0.00 0.00 0.00 87 1016.6
20260507081557 10 0 0.0 0.0 0.00 0.00 0.00 86 1016.5
20260507080054 10 0 0.0 0.0 0.00 0.00 0.00 86 1016.5
20260507074549 10 0 0.0 0.0 0.00 0.00 0.00 87 1016.6
20260507073100 9 0 0.0 0.0 0.00 0.00 0.00 88 1016.5
20260507071553 8 0 0.0 0.0 0.00 0.00 0.00 90 1016.4
20260507070131 8 0 0.0 0.0 0.00 0.00 0.00 90 1016.5
20260507064554 8 0 0.0 0.0 0.00 0.00 0.00 90 1016.6
20260507063053 8 0 0.0 0.0 0.00 0.00 0.00 91 1016.5
20260507061552 7 0 0.0 0.0 0.00 0.00 0.00 90 1016.5
20260507060052 7 0 0.0 0.0 0.00 0.00 0.00 90 1016.5
20260507054557 7 0 0.0 0.0 0.00 0.00 0.00 90 1016.5
20260507053055 7 0 0.0 0.0 0.00 0.00 0.00 90 1016.4
20260507051553 7 0 0.0 0.0 0.00 0.00 0.00 90 1016.4
20260507050057 7 0 0.0 0.0 0.00 0.00 0.00 90 1016.4
20260507044602 7 0 0.0 0.0 0.00 0.00 0.00 89 1016.4
20260507043056 7 0 0.0 0.0 0.00 0.00 0.00 89 1016.4
20260507041550 7 0 0.0 0.0 0.00 0.00 0.00 89 1016.3
20260507040055 7 0 0.0 0.0 0.00 0.00 0.00 89 1016.2
20260507034552 8 0 0.0 0.0 0.00 0.00 0.00 89 1016.2
20260507033054 8 0 0.0 0.0 0.00 0.00 0.00 89 1016.2
20260507031554 8 0 0.0 0.0 0.00 0.00 0.00 89 1016.3
20260507030101 8 0 0.0 0.0 0.00 0.00 0.00 89 1016.4
20260507024612 8 0 0.0 0.0 0.00 0.00 0.00 88 1016.4
20260507023051 8 0 0.0 0.0 0.00 0.00 0.00 88 1016.4
20260507021612 8 0 0.0 0.0 0.00 0.00 0.00 88 1016.5